Pardubice, Czech Republic

1:57 AM CEST on September 22, 2017 (GMT +0200)
Pardubice

Weather History for LKPD - October, 2012

Change the Weather History Date:

Wednesday, October 10, 2012

  Actual Average Record
Temperature  
Mean Temperature 45 °F -  
Max Temperature 51 °F - - ()
Min Temperature 39 °F - - ()
Degree Days  
Heating Degree Days 20    
Moisture  
Dew Point 38 °F    
Average Humidity 78    
Maximum Humidity 93    
Minimum Humidity 62    
Precipitation  
Precipitation 0.00 in - - ()
Sea Level Pressure  
Sea Level Pressure 29.95 in    
Wind  
Wind Speed 4 mph ()    
Max Wind Speed 7 mph    
Max Gust Speed -    
Visibility 6.2 miles    
Events      
T = Trace of Precipitation, MM = Missing Value Source: Averaged Metar Reports

Daily Weather History Graph

Daily Weather History Graph

Search for Another Location

Airport or City:

Trip Planner

Search our weather history database for the weather conditions in past years. The results will help you decide how hot, cold, wet, or windy it might be!

Date:

Astronomy

Oct. 10, 2012 Rise Set
Actual Time 7:11 AM CEST 6:15 PM CEST
Civil Twilight 6:39 AM CEST 6:48 PM CEST
Nautical Twilight 6:01 AM CEST 7:25 PM CEST
Astronomical Twilight 5:23 AM CEST 8:02 PM CEST
Moon 12:59 AM CEST (10/10) 3:35 PM CEST (10/10)
Length of Visible Light 12h 09m
Length of Day
11h 04m
Waning Crescent, 30% of the Moon is Illuminated
Oct 10
Waning Crescent
Oct 15
New
Oct 22
First Quarter
Oct 29
Full
Nov 7
Last Quarter

Hourly Weather History & Observations

Time (CEST) Temp. Windchill Dew Point Humidity Pressure Visibility Wind Dir Wind Speed Gust Speed Precip Events Conditions
12:00 AM 42.8 °F 39.3 °F 37.4 °F 81% 29.95 in - West 5.8 mph - N/A   Clear
1:00 AM 42.8 °F 38.6 °F 37.4 °F 81% 29.95 in - West 6.9 mph - N/A   Clear
2:00 AM 42.8 °F 40.1 °F 35.6 °F 76% 29.95 in - West 4.6 mph - N/A   Clear
3:00 AM 41.0 °F 38.0 °F 35.6 °F 81% 29.95 in - West 4.6 mph - N/A   Clear
4:00 AM 39.2 °F 34.2 °F 35.6 °F 87% 29.95 in - West 6.9 mph - N/A   Clear
5:00 AM 41.0 °F 38.0 °F 37.4 °F 87% 29.95 in - West 4.6 mph - N/A   Clear
6:00 AM 39.2 °F 35.9 °F 35.6 °F 87% 29.95 in - WSW 4.6 mph - N/A   Clear
7:00 AM 39.2 °F - 35.6 °F 87% 29.95 in - Calm Calm - N/A   Clear
8:00 AM 39.2 °F - 37.4 °F 93% 29.95 in - Calm Calm - N/A   Clear
9:00 AM 42.8 °F - 39.2 °F 87% 29.98 in 6.2 mi Calm Calm - N/A   Mostly Cloudy
10:00 AM 46.4 °F 44.3 °F 39.2 °F 76% 29.98 in - West 4.6 mph - N/A   Clear
11:00 AM 48.2 °F - 39.2 °F 71% 29.98 in 6.2 mi West 4.6 mph - N/A   Mostly Cloudy
12:00 PM 50.0 °F - 39.2 °F 66% 29.98 in 6.2 mi NW 4.6 mph - N/A   Mostly Cloudy
1:00 PM 51.8 °F - 39.2 °F 62% 29.95 in 6.2 mi West 5.8 mph - N/A   Mostly Cloudy
2:00 PM 50.0 °F - 39.2 °F 66% 29.95 in 6.2 mi West 4.6 mph - N/A   Mostly Cloudy
3:00 PM 50.0 °F - 37.4 °F 62% 29.92 in 6.2 mi WSW 4.6 mph - N/A   Overcast
4:00 PM 50.0 °F - 37.4 °F 62% 29.92 in 6.2 mi NW 3.5 mph - N/A   Overcast
5:00 PM 50.0 °F - 37.4 °F 62% 29.92 in - Variable 2.3 mph - N/A   Clear
6:00 PM 50.0 °F - 39.2 °F 66% 29.92 in - Variable 2.3 mph - N/A   Clear
7:00 PM 46.4 °F - 41.0 °F 81% 29.95 in - NW 2.3 mph - N/A   Clear
8:00 PM 44.6 °F - 41.0 °F 87% 29.95 in - Variable 2.3 mph - N/A   Clear
9:00 PM 42.8 °F - 39.2 °F 87% 29.95 in - Variable 2.3 mph - N/A   Clear
10:00 PM 42.8 °F 40.1 °F 39.2 °F 87% 29.98 in - West 4.6 mph - N/A   Clear
11:00 PM 41.0 °F 39.0 °F 39.2 °F 93% 29.98 in - WSW 3.5 mph - N/A   Clear